クラーク彗星

71P/Clark (1995)

English version
Home page
Updated on April 11, 1998

---------------------------------------------------------------------

・ プロフィール

・ 軌道要素

   The following improved orbital elements by Kenji Muraoka, 
  are from 182 observations 1989 to 1997, including 9 Planets, 
  Moon and 5 minor planets perturbations and non-gravitational 
  effect of style II.  The mean residual is +/- 0.81 arc seconds.

      Epoch  =  1995 June 12.0  TT       JDT = 2449880.5
          T  =  1995 May  31.09704       +/- 0.00650 (m.e.) TT
       Peri. =  208.84913                +/- 0.00155
       Node  =   59.72323                +/- 0.00009   (2000.0)
       Incl. =    9.50496                +/- 0.00002
          q  =    1.5525802              +/- 0.0000028 AU
          e  =    0.5019746              +/- 0.0000024
          a  =    3.1174719              +/- 0.0000052 AU
          n  =    0.17906069             +/- 0.00000045
          P  =    5.504                  +/- 0.0000137  years
         A1  =   +0.995                  +/- 0.116
         A2  =   -0.54333                +/- 0.01013

・ 星図

・ 1994年11月 4日〜1995年 9月20日
・ 1995年 9月20日〜1996年 3月18日

・ 光度変化

        m1 = 8.0 + 5 logΔ + 22.0 log r

---------------------------------------------------------------------

軌道要素は村岡健治氏の計算によるものです。
星図は StellaNavigator Ver.2.0 for Windows (アストロアーツ 編著 / アスキー出版局刊) で作成したものです。
光度グラフはComet for Windowsで作成したものです。

---------------------------------------------------------------------

Copyright(C) Seiichi Yoshida (comet@aerith.net). All rights reserved.